Theta_e
296 294 291 293 294 293 292 290 290 293 296 295 294 294 296 299 299 300 301 302 303 304 305 307 312 316 316 319 321 322 323 332 329 334 340 341 341 342 342 343 342 342 343 342
293 290 294 294 293 292 291 290 290 293 296 294 294 293 296 298 299 300 302 302 303 302 303 308 312 314 315 316 318 321 321 326 326 325 337 340 343 344 344 345 345 344 342 339
290 292 294 293 292 291 291 290 290 289 293 295 293 290 293 297 299 300 302 302 302 302 304 309 310 311 313 314 316 318 321 322 323 327 329 338 343 343 342 343 343 345 344 343
292 294 292 292 290 293 288 295 292 290 289 284 292 283 290 294 295 298 299 301 302 305 307 308 309 310 312 312 314 316 319 322 322 326 327 336 333 334 341 343 345 346 346 346
290 291 291 290 291 295 290 295 292 291 289 288 287 285 289 293 292 295 299 300 304 306 307 307 308 310 312 313 314 315 319 320 322 323 324 325 335 337 343 344 349 349 348 349
293 295 294 293 295 295 295 292 290 289 288 282 286 286 287 290 293 295 299 301 304 306 306 308 310 311 312 314 315 317 317 320 320 321 322 326 332 339 339 340 339 340 342 345
290 291 296 296 292 293 292 289 283 281 281 281 288 285 288 293 296 297 298 300 305 306 306 307 308 309 311 313 315 317 318 317 319 320 321 322 328 336 341 342 341 344 343 344
286 284 292 295 292 290 290 289 283 275 278 281 286 282 288 295 298 299 301 304 305 305 306 307 309 310 311 312 315 317 317 317 319 320 320 322 326 327 337 343 343 343 344 348
287 286 293 294 294 294 288 286 289 284 284 281 284 288 293 296 296 298 300 302 302 304 306 307 309 310 311 313 315 316 317 318 320 321 322 322 325 329 335 344 348 343 349 347
291 285 291 293 294 293 291 293 285 286 277 276 282 284 285 291 293 297 298 300 302 304 305 307 308 310 312 313 315 316 317 317 318 321 325 324 325 328 335 341 345 345 349 348
293 290 288 291 290 289 289 288 289 287 286 279 278 283 293 293 295 296 299 301 301 302 304 306 307 309 311 312 312 315 315 315 316 319 322 328 330 329 334 340 342 344 349 348
294 291 285 288 293 293 292 290 290 284 282 285 284 284 296 296 297 299 299 300 302 303 306 306 307 308 310 311 311 312 313 314 315 318 321 323 330 331 334 338 340 345 346 347
295 289 282 284 288 291 289 290 291 290 288 284 280 284 296 298 298 299 299 301 302 304 305 305 307 308 309 310 310 311 312 313 314 317 317 319 327 331 334 338 340 342 345 346
297 291 286 281 285 289 286 289 291 290 284 285 285 287 292 295 297 299 300 302 303 303 304 305 306 307 308 309 308 308 310 312 314 316 314 318 327 332 333 338 341 345 345 345
295 287 290 289 290 290 289 289 289 288 289 284 287 288 292 296 297 299 301 301 301 302 302 304 305 307 307 308 308 307 310 312 313 314 313 317 332 332 333 337 340 344 345 345
294 287 289 286 289 289 287 289 289 290 290 290 290 290 297 299 300 299 300 300 300 301 303 304 305 306 306 307 307 307 309 311 313 312 311 317 335 330 334 338 341 343 343 344
291 289 286 282 287 286 282 287 289 290 292 292 288 293 298 297 298 299 300 300 300 302 303 304 305 306 307 307 308 306 310 312 310 310 311 322 334 331 334 338 340 341 342 343
289 288 287 282 285 276 288 294 294 292 294 295 294 296 298 298 300 301 302 302 301 303 303 304 305 306 307 308 307 308 309 309 309 309 313 325 332 332 335 336 336 336 338 340
291 288 283 280 281 285 288 292 292 290 290 296 295 296 298 300 300 299 304 305 304 304 305 306 306 306 306 306 307 307 306 307 307 311 322 329 333 332 331 333 333 335 337 338
290 290 285 284 280 278 288 293 297 296 287 297 296 297 298 299 290 295 304 305 305 306 306 306 306 305 305 306 308 306 306 307 309 320 322 330 333 334 333 335 336 338 338 336
286 285 282 283 283 287 293 295 297 284 288 297 298 299 299 296 299 302 304 304 305 304 304 305 304 304 305 307 307 305 306 307 314 324 323 328 334 335 335 334 334 334 332 334
286 284 285 285 282 280 297 295 289 296 299 299 299 300 299 301 300 300 302 302 301 300 302 303 302 303 306 307 307 306 308 313 318 324 323 329 332 331 331 331 332 332 332 328
285 289 286 288 289 297 299 297 299 300 298 300 300 301 301 299 299 300 299 299 299 298 301 302 302 303 307 309 309 309 311 314 318 322 322 326 328 328 329 329 327 328 329 326
290 294 288 289 292 294 296 299 299 299 299 301 302 302 301 299 299 298 298 297 298 299 300 302 303 303 305 309 310 312 313 315 319 322 323 325 326 327 329 329 328 328 329 328
291 292 290 290 293 295 296 297 299 300 302 302 303 302 300 299 298 297 297 297 298 298 300 302 302 302 304 308 310 313 314 316 320 322 325 324 325 326 320 314 325 330 331 326
292 289 286 285 291 291 293 298 301 301 301 302 300 299 299 299 297 297 296 297 297 298 300 301 302 304 307 310 311 314 315 316 321 319 324 323 320 320 319 320 315 296 299 298
Wind_Speed
2 3 4 3 6 2 2 3 3 2 1 9 9 14 14 14 10 12 9 8 5 5 3 4 8 10 11 10 11 10 11 10 6 4 5 7 9 8 10 11 14 13 13 14
3 4 2 4 2 5 5 3 3 4 3 6 12 18 16 18 13 15 13 10 7 3 4 4 6 9 13 12 12 13 12 11 8 6 6 7 6 7 8 10 12 14 14 9
3 1 1 1 1 4 3 3 3 4 4 9 9 16 7 3 8 9 6 4 4 4 4 8 10 10 11 13 14 13 13 12 10 10 7 7 7 6 6 9 10 13 17 17
4 0 3 1 3 5 5 4 2 4 8 7 4 7 6 7 6 4 3 5 4 3 3 4 7 11 12 12 11 14 15 15 11 11 10 10 9 11 9 9 9 10 14 15
2 4 3 4 2 4 2 2 1 5 10 6 5 7 0 4 3 2 5 3 3 3 5 9 10 10 11 12 12 13 13 14 13 11 11 10 11 10 10 9 10 11 11 14
7 1 3 1 3 1 3 2 3 1 3 6 0 5 4 6 8 0 4 3 4 6 6 9 10 11 11 11 13 14 16 14 14 12 12 12 13 13 11 8 7 8 8 10
1 2 1 2 4 3 2 5 5 3 4 3 1 9 7 6 10 9 8 10 5 7 10 12 13 13 13 14 15 15 16 17 15 15 15 13 15 16 15 13 10 10 9 10
5 6 7 4 2 1 1 3 4 5 4 6 3 10 2 1 5 7 8 5 8 9 8 8 11 13 14 15 15 17 17 17 17 18 18 15 15 12 11 14 12 11 11 12
6 5 1 1 2 3 4 6 3 6 3 7 6 7 10 10 9 4 6 6 8 14 15 15 13 11 12 14 16 18 18 17 18 20 17 17 16 16 14 15 13 12 12 10
3 5 1 2 3 3 5 9 4 3 5 6 6 13 10 9 10 6 7 8 13 18 18 16 15 14 13 13 13 16 18 18 17 20 18 16 17 16 16 15 15 14 11 12
5 4 2 2 8 10 6 7 2 1 4 4 6 4 2 5 6 10 10 11 15 20 18 16 17 16 16 16 16 16 16 19 18 17 19 20 18 18 16 16 15 15 14 15
2 3 7 10 1 2 5 9 11 6 7 5 5 8 8 10 9 6 13 19 20 16 14 15 16 17 16 19 19 17 17 18 19 17 18 21 21 19 17 16 16 15 16 16
6 4 5 4 4 2 6 10 10 6 3 12 11 8 4 4 13 21 21 18 16 12 14 13 13 14 16 17 18 19 19 18 19 18 16 18 21 20 18 16 15 16 16 16
7 8 11 12 8 1 6 7 11 13 11 14 18 29 24 25 23 20 18 17 13 14 13 12 12 14 14 16 18 21 20 18 19 19 16 18 23 20 18 16 16 17 18 17
5 9 14 18 17 17 21 20 19 21 21 20 19 24 25 21 19 20 18 13 12 14 12 14 15 15 16 17 18 19 19 20 19 20 17 19 22 18 18 17 17 16 16 16
4 14 15 17 12 14 20 23 24 25 25 25 25 26 26 17 10 15 15 16 14 13 15 17 17 18 17 18 17 17 21 20 20 19 19 21 19 17 18 17 17 16 16 16
5 5 5 13 6 5 12 26 24 22 18 15 16 18 9 13 13 16 16 15 18 18 17 18 19 17 16 16 15 19 22 21 19 20 21 21 14 17 18 18 17 17 15 15
13 11 7 8 7 10 8 2 6 8 12 9 16 17 14 12 17 19 18 18 20 19 19 19 17 17 15 15 13 19 19 20 19 23 24 18 11 15 15 15 14 13 14 17
17 12 5 6 9 11 16 1 1 1 6 8 10 8 13 19 23 20 16 13 18 18 18 20 18 17 16 16 14 15 16 16 20 24 13 10 11 12 15 15 15 15 15 14
11 12 6 5 5 4 1 1 3 3 7 4 5 15 19 18 13 16 17 21 22 21 19 20 20 20 19 17 13 14 17 20 18 15 10 4 12 15 14 15 17 14 13 12
3 3 11 10 6 6 2 2 3 3 4 7 16 17 17 17 14 25 23 21 21 21 22 22 19 18 19 13 10 14 18 17 20 13 8 9 7 12 13 12 11 13 13 15
2 3 2 4 5 4 2 2 5 12 16 18 19 18 20 20 20 23 26 24 23 24 22 20 18 16 17 13 10 14 16 15 16 12 7 3 7 7 9 14 12 14 16 15
3 3 4 4 4 6 9 13 15 17 19 16 18 19 17 19 22 24 25 22 21 21 21 18 17 17 16 15 13 15 15 14 14 4 8 4 8 8 10 14 13 12 12 13
4 5 5 7 2 12 16 16 17 15 13 20 20 18 17 20 22 23 23 16 17 19 18 17 17 15 16 15 15 15 13 13 12 7 7 5 9 11 12 10 10 11 11 13
6 6 6 12 15 16 14 16 19 20 20 20 19 17 19 20 23 20 16 18 20 18 17 16 16 14 17 17 15 15 12 10 10 5 4 7 8 10 11 9 8 11 11 11
5 6 4 7 20 17 18 19 24 24 22 19 20 22 23 20 20 16 15 16 16 16 17 17 18 17 18 16 15 14 12 9 7 4 4 6 8 9 10 10 11 21 12 13
Wind_Direction
53 220 215 226 240 207 173 192 211 246 132 325 301 293 290 278 261 267 259 262 257 253 320 333 341 340 346 348 349 351 335 330 343 314 259 237 239 230 231 230 220 201 196 209
184 239 206 286 160 182 184 190 188 265 273 312 295 292 283 271 253 238 237 221 232 276 293 331 344 348 349 337 343 338 334 328 327 304 272 259 252 234 235 233 223 214 206 194
217 184 214 77 133 182 197 216 191 265 305 266 295 275 207 239 242 218 212 239 235 253 316 338 349 346 340 339 335 330 324 314 314 308 291 264 257 242 231 229 227 215 200 191
256 34 160 293 220 203 221 186 230 274 315 302 331 285 240 277 214 240 215 275 255 323 332 331 346 341 334 330 323 319 316 313 310 315 303 273 259 254 237 233 234 224 210 194
62 181 220 256 229 190 120 188 282 289 287 296 247 252 323 201 150 91 309 250 232 323 340 343 344 340 330 332 328 318 304 302 301 304 296 285 264 254 251 240 231 215 206 197
271 250 250 185 95 83 121 216 300 172 244 242 157 260 174 194 181 287 306 286 300 335 344 339 333 330 334 336 334 326 315 303 296 302 297 282 266 255 248 230 218 200 196 200
264 212 249 213 172 125 128 336 307 254 222 302 160 289 253 234 240 280 294 305 335 322 334 333 333 335 335 335 334 332 322 309 299 298 291 279 268 258 248 238 229 211 200 198
239 221 188 168 219 266 207 278 258 285 275 316 256 254 176 333 290 286 280 285 310 329 332 318 313 320 325 327 324 331 328 317 306 299 293 285 271 261 250 240 232 222 214 201
199 236 213 195 157 207 135 211 22 261 253 274 247 271 268 280 271 313 275 296 334 336 330 324 312 308 317 317 319 321 322 319 310 304 295 286 276 260 249 243 230 223 219 211
186 259 215 127 157 84 245 141 182 186 246 254 255 275 257 283 302 333 314 300 326 332 329 323 317 312 306 309 303 311 313 315 313 305 298 286 277 266 247 240 230 222 207 200
168 244 202 216 214 220 168 192 163 273 238 261 294 254 244 274 307 313 306 307 311 320 322 314 313 312 306 308 309 306 310 311 314 307 302 294 284 271 246 233 223 213 204 193
181 236 250 250 184 296 242 243 215 223 188 229 283 275 283 258 274 276 303 304 309 309 304 307 310 310 305 312 312 310 311 306 309 305 300 294 288 273 244 226 216 206 203 192
176 212 273 222 153 176 215 195 210 225 251 241 260 256 155 220 280 304 302 301 306 298 300 308 311 310 305 311 312 309 306 302 305 305 300 287 283 266 240 224 209 200 193 184
181 227 246 256 295 153 226 211 217 227 254 261 247 272 282 290 299 303 297 298 291 295 299 305 308 310 309 309 311 308 303 302 305 303 296 284 280 252 232 216 199 195 186 175
208 256 253 260 262 265 269 268 260 248 252 250 264 269 276 286 302 305 294 283 283 289 305 300 298 299 306 306 308 301 306 302 306 302 299 289 278 242 224 210 197 190 178 176
197 258 261 264 259 259 266 265 256 255 258 257 258 267 272 284 296 312 290 279 280 295 296 298 299 295 306 308 305 306 303 302 305 303 299 286 261 229 212 199 187 179 170 165
225 240 262 267 280 302 270 254 254 251 250 253 247 249 283 299 317 321 314 283 283 296 292 297 300 297 302 300 300 302 302 300 300 301 298 287 234 214 199 182 177 169 156 154
241 246 249 272 265 252 265 304 279 250 255 241 249 271 297 308 307 308 299 282 282 290 290 293 296 296 299 302 296 298 296 300 300 302 288 281 206 197 182 167 162 151 149 163
224 216 230 229 209 285 291 203 140 232 293 262 270 304 312 313 313 294 302 303 295 292 290 296 296 296 297 292 291 285 289 276 267 267 262 246 184 166 165 153 151 152 154 155
191 217 210 202 246 253 67 153 185 228 280 111 353 318 313 317 304 299 313 310 300 295 295 296 296 298 293 294 296 290 286 288 288 287 310 227 166 158 153 150 146 145 144 137
155 170 219 237 262 274 349 181 210 266 358 310 316 309 303 297 294 301 304 301 300 298 295 295 295 289 289 288 290 289 289 299 297 320 319 314 161 156 144 129 128 129 126 127
280 294 217 223 241 251 94 201 275 319 311 306 305 301 298 298 303 297 298 306 310 306 305 298 298 298 296 299 291 282 281 292 301 313 310 274 128 135 129 131 127 128 129 121
289 317 285 231 282 308 301 296 302 301 295 299 298 300 302 297 296 298 302 305 304 301 299 299 298 300 299 297 294 286 290 298 310 318 305 166 128 128 136 132 122 128 127 125
284 309 266 314 260 301 314 312 307 301 294 293 297 296 289 289 294 295 302 302 296 297 300 297 303 295 297 292 286 277 282 288 294 248 277 160 133 130 129 127 124 123 133 136
276 297 290 280 285 315 290 303 297 298 299 294 294 289 289 290 288 297 295 300 301 301 300 302 297 292 283 283 280 279 283 280 282 240 193 151 130 119 98 65 100 130 138 139
7 357 322 294 300 288 290 288 295 306 309 309 304 300 298 293 288 290 296 296 294 296 300 301 292 281 280 279 276 275 268 264 253 188 147 123 122 114 115 110 80 38 56 76